User: anonymous   Login
Location: Elk Forest
(39.5314°N, 75.8738°W)
Time: 22:43:42
(UTC-04:00)
Language:

Resurs 01 Rocket - Orbit

View from above orbital plane
View from above orbital plane
View from above satellite
View from above satellite

Ground track
Ground track

The orbit data is extracted from the following two-line orbital elements,

1 23343U 94074B   16176.71703995  .00000007  00000-0  86349-5 0  9993
2 23343  98.1927 203.3322 0007902 131.5546   4.0059 14.76660860164071
Epoch (UTC): 24 June 2016 17:12:32
Eccentricity: 0.0007902
inclination: 98.1927°
perigee height: 634 km
apogee height: 645 km
right ascension of ascending node: 203.3322°
argument of perigee: 131.5546°
revolutions per day: 14.76660860
mean anomaly at epoch: 4.0059°
orbit number at epoch: 16407

The dashed part of the orbit path shows where the satellite is in the earth's shadow,  

DLR